LRS506 MRQP-MROC

Flight info

Callsign LRS506
Flight time 0h 18m
Altitude 8000
Route PARRI DCT COLON DCT CYRUS
Aircraft C208/L-SDFGR/C

Departure

Time 2026-04-26 05:40
Airport Quepos Managua Airport (MRQP)

Arrival

Time 2026-04-26 05:58
Airport Juan Santamaría International Airport (MROC)
Time Latitude Longitude Altitude Speed Heading
2026-04-26 05:30 9.43926 -84.13298 40 ft 0 kts 309°
2026-04-26 05:30 9.43926 -84.13299 40 ft 1 kts 310°
2026-04-26 05:30 9.43938 -84.13309 43 ft 1 kts 326°
2026-04-26 05:31 9.43940 -84.13310 42 ft 1 kts 328°
2026-04-26 05:31 9.43940 -84.13311 42 ft 1 kts 328°
2026-04-26 05:31 9.43944 -84.13313 42 ft 0 kts 329°
2026-04-26 05:32 9.43945 -84.13313 42 ft 0 kts 329°
2026-04-26 05:32 9.43945 -84.13314 42 ft 1 kts 329°
2026-04-26 05:32 9.43942 -84.13312 42 ft 0 kts 329°
2026-04-26 05:34 9.43938 -84.13309 43 ft 0 kts 329°
2026-04-26 05:38 9.43933 -84.13323 49 ft 7 kts 213°
2026-04-26 05:38 9.43944 -84.13304 42 ft 12 kts 34°
2026-04-26 05:38 9.44042 -84.13219 42 ft 42 kts 42°
2026-04-26 05:39 9.44405 -84.12903 41 ft 91 kts 38°
2026-04-26 05:39 9.44961 -84.12504 186 ft 103 kts 23°
2026-04-26 05:39 9.45674 -84.12531 422 ft 114 kts 334°
2026-04-26 05:39 9.46182 -84.13157 593 ft 124 kts 289°
2026-04-26 05:40 9.46111 -84.14021 772 ft 130 kts 250°
2026-04-26 05:40 9.45789 -84.14911 1004 ft 138 kts 252°
2026-04-26 05:40 9.45548 -84.15872 1243 ft 144 kts 265°
2026-04-26 05:40 9.45618 -84.16882 1490 ft 146 kts 289°
2026-04-26 05:41 9.46006 -84.17840 1727 ft 149 kts 296°
2026-04-26 05:41 9.46436 -84.18808 1950 ft 152 kts 296°
2026-04-26 05:41 9.46876 -84.19784 2170 ft 151 kts 296°
2026-04-26 05:41 9.47306 -84.20737 2391 ft 150 kts 296°
2026-04-26 05:42 9.47740 -84.21696 2595 ft 149 kts 296°
2026-04-26 05:42 9.48168 -84.22637 2809 ft 145 kts 296°
2026-04-26 05:42 9.48583 -84.23555 3028 ft 142 kts 296°
2026-04-26 05:42 9.48992 -84.24458 3271 ft 140 kts 296°
2026-04-26 05:43 9.49398 -84.25352 3481 ft 139 kts 296°
2026-04-26 05:43 9.49799 -84.26237 3728 ft 137 kts 296°
2026-04-26 05:43 9.50195 -84.27111 3962 ft 136 kts 296°
2026-04-26 05:43 9.50590 -84.27980 4222 ft 135 kts 297°
2026-04-26 05:44 9.50980 -84.28838 4460 ft 134 kts 296°
2026-04-26 05:44 9.51369 -84.29695 4571 ft 133 kts 296°
2026-04-26 05:44 9.51756 -84.30547 4797 ft 133 kts 296°
2026-04-26 05:44 9.52305 -84.31272 5026 ft 130 kts 328°
2026-04-26 05:45 9.53131 -84.31570 5255 ft 128 kts 358°
2026-04-26 05:45 9.54002 -84.31439 5491 ft 127 kts 14°
2026-04-26 05:45 9.54872 -84.31258 5708 ft 128 kts 13°
2026-04-26 05:45 9.55742 -84.31075 5919 ft 128 kts 13°
2026-04-26 05:46 9.56619 -84.30887 6132 ft 130 kts 14°
2026-04-26 05:46 9.57504 -84.30697 6327 ft 131 kts 13°
2026-04-26 05:46 9.58399 -84.30503 6514 ft 131 kts 13°
2026-04-26 05:46 9.59294 -84.30310 6701 ft 132 kts 13°
2026-04-26 05:47 9.60189 -84.30115 6883 ft 132 kts 13°
2026-04-26 05:47 9.61073 -84.29924 7070 ft 131 kts 13°
2026-04-26 05:47 9.61968 -84.29730 7256 ft 132 kts 13°
2026-04-26 05:47 9.62865 -84.29535 7447 ft 132 kts 13°
2026-04-26 05:48 9.63761 -84.29342 7637 ft 132 kts 13°
2026-04-26 05:48 9.64656 -84.29148 7846 ft 132 kts 13°
2026-04-26 05:48 9.65596 -84.28943 7868 ft 144 kts 13°
2026-04-26 05:48 9.66603 -84.28723 7875 ft 152 kts 13°
2026-04-26 05:49 9.67654 -84.28495 7875 ft 157 kts 13°
2026-04-26 05:49 9.69839 -84.28024 7874 ft 163 kts 13°
2026-04-26 05:49 9.70954 -84.27782 7873 ft 164 kts 13°
2026-04-26 05:50 9.72077 -84.27539 7876 ft 165 kts 13°
2026-04-26 05:50 9.73200 -84.27296 7868 ft 165 kts 13°
2026-04-26 05:50 9.74325 -84.27053 7871 ft 165 kts 13°
2026-04-26 05:50 9.75440 -84.26812 7875 ft 166 kts 13°
2026-04-26 05:51 9.76575 -84.26566 7875 ft 167 kts 13°
2026-04-26 05:51 9.77713 -84.26319 7875 ft 167 kts 13°
2026-04-26 05:51 9.78852 -84.26072 7888 ft 167 kts 13°
2026-04-26 05:51 9.79991 -84.25823 7751 ft 165 kts 13°
2026-04-26 05:52 9.81098 -84.25582 7603 ft 161 kts 13°
2026-04-26 05:52 9.82178 -84.25350 7457 ft 157 kts 13°
2026-04-26 05:52 9.83235 -84.25122 7311 ft 155 kts 13°
2026-04-26 05:52 9.84285 -84.24895 7171 ft 154 kts 13°
2026-04-26 05:53 9.85344 -84.24670 7028 ft 157 kts 13°
2026-04-26 05:53 9.86415 -84.24436 6803 ft 158 kts 14°
2026-04-26 05:53 9.87492 -84.24202 6576 ft 159 kts 13°
2026-04-26 05:53 9.88577 -84.23967 6341 ft 160 kts 13°
2026-04-26 05:54 9.89672 -84.23735 6100 ft 161 kts 11°
2026-04-26 05:54 9.90760 -84.23823 5845 ft 155 kts 344°
2026-04-26 05:54 9.91691 -84.24284 5588 ft 143 kts 333°
2026-04-26 05:54 9.92537 -84.24738 5360 ft 135 kts 334°
2026-04-26 05:55 9.93350 -84.25168 5135 ft 129 kts 334°
2026-04-26 05:55 9.94130 -84.25582 4914 ft 124 kts 334°
2026-04-26 05:55 9.94870 -84.25977 4693 ft 113 kts 333°
2026-04-26 05:55 9.95549 -84.26341 4464 ft 108 kts 334°
2026-04-26 05:56 9.96243 -84.26626 4231 ft 108 kts 355°
2026-04-26 05:56 9.96966 -84.26483 4021 ft 107 kts 30°
2026-04-26 05:56 9.97472 -84.25968 3809 ft 109 kts 65°
2026-04-26 05:56 9.97735 -84.25248 3625 ft 105 kts 70°
2026-04-26 05:57 9.97985 -84.24561 3484 ft 102 kts 72°
2026-04-26 05:57 9.98150 -84.24119 3387 ft 102 kts 69°
2026-04-26 05:57 9.98422 -84.23444 3240 ft 105 kts 67°
2026-04-26 05:57 9.98689 -84.22746 3120 ft 109 kts 70°
2026-04-26 05:58 9.98948 -84.22057 2988 ft 100 kts 71°
2026-04-26 05:58 9.99150 -84.21523 2982 ft 48 kts 68°
2026-04-26 05:58 9.99256 -84.21240 2996 ft 26 kts 68°
2026-04-26 05:58 9.99307 -84.21158 3002 ft 17 kts 10°
2026-04-26 05:59 9.99408 -84.21093 3009 ft 13 kts 73°
2026-04-26 05:59 9.99426 -84.21043 3014 ft 9 kts 68°
2026-04-26 05:59 9.99446 -84.20995 3021 ft 6 kts 65°
2026-04-26 05:59 9.99467 -84.20945 3027 ft 10 kts 70°
2026-04-26 06:00 9.99500 -84.20865 3032 ft 9 kts 38°
2026-04-26 06:00 9.99560 -84.20881 3031 ft 11 kts 339°
2026-04-26 06:00 9.99654 -84.20916 3034 ft 16 kts 338°
2026-04-26 06:00 9.99711 -84.20896 3034 ft 10 kts 68°
2026-04-26 06:01 9.99737 -84.20866 3033 ft 8 kts 337°
2026-04-26 06:01 9.99744 -84.20858 3033 ft 0 kts 180°